Time,TemperatureF,DewpointF,PressureIn,WindDirection,WindDirectionDegrees,WindSpeedMPH,WindSpeedGustMPH,Humidity,HourlyPrecipIn,Conditions,Clouds,dailyrainin,SoftwareType,DateUTC
2013-05-31 00:05:00,62.4,60.9,29.64,ESE,112,0.0,0.0,95,0.00,,,0.00,Wunderground v.1.15,2013-05-31 05:05:00,
2013-05-31 00:15:00,62.5,61.3,29.64,South,188,0.0,2.0,96,0.00,,,0.00,Wunderground v.1.15,2013-05-31 05:15:00,
2013-05-31 00:19:00,62.5,61.3,29.64,South,188,0.0,0.0,96,0.00,,,0.00,Wunderground v.1.15,2013-05-31 05:19:00,
2013-05-31 00:24:00,62.6,61.4,29.64,SSW,209,0.0,0.0,96,0.00,,,0.00,Wunderground v.1.15,2013-05-31 05:24:00,
2013-05-31 00:29:00,62.5,61.3,29.63,SSW,209,0.0,0.0,96,0.00,,,0.00,Wunderground v.1.15,2013-05-31 05:29:00,
2013-05-31 00:34:00,62.4,60.9,29.63,SSW,206,0.0,0.0,95,0.00,,,0.00,Wunderground v.1.15,2013-05-31 05:34:00,
2013-05-31 00:40:00,62.5,61.3,29.64,South,191,0.0,0.0,96,0.00,,,0.00,Wunderground v.1.15,2013-05-31 05:40:00,
2013-05-31 00:45:00,62.5,61.3,29.63,South,188,0.0,0.0,96,0.00,,,0.00,Wunderground v.1.15,2013-05-31 05:45:00,
2013-05-31 00:49:00,62.6,61.4,29.63,East,101,0.0,0.0,96,0.00,,,0.00,Wunderground v.1.15,2013-05-31 05:49:00,
2013-05-31 00:54:00,62.7,61.5,29.63,ESE,121,0.0,0.0,96,0.00,,,0.00,Wunderground v.1.15,2013-05-31 05:54:00,
2013-05-31 00:59:00,62.6,61.4,29.63,SE,139,0.0,0.0,96,0.00,,,0.00,Wunderground v.1.15,2013-05-31 05:59:00,
2013-05-31 01:04:00,62.6,61.4,29.62,ESE,119,0.0,0.0,96,0.00,,,0.00,Wunderground v.1.15,2013-05-31 06:04:00,
2013-05-31 01:09:00,62.5,61.3,29.62,SE,125,1.0,3.0,96,0.00,,,0.00,Wunderground v.1.15,2013-05-31 06:09:00,
2013-05-31 01:14:00,62.4,61.2,29.63,SE,132,1.0,3.0,96,0.00,,,0.00,Wunderground v.1.15,2013-05-31 06:14:00,
2013-05-31 01:20:00,62.4,61.2,29.63,SSW,209,1.0,1.0,96,0.00,,,0.00,Wunderground v.1.15,2013-05-31 06:20:00,
2013-05-31 01:25:00,62.4,61.2,29.62,SE,142,0.0,1.0,96,0.00,,,0.00,Wunderground v.1.15,2013-05-31 06:25:00,
2013-05-31 01:30:00,62.5,61.3,29.62,South,169,0.0,4.0,96,0.00,,,0.00,Wunderground v.1.15,2013-05-31 06:30:00,
2013-05-31 01:39:00,62.2,60.8,29.62,SSW,203,0.0,0.0,95,0.00,,,0.00,Wunderground v.1.15,2013-05-31 06:39:00,
2013-05-31 01:44:00,62.1,60.7,29.63,SE,126,0.0,0.0,95,0.00,,,0.00,Wunderground v.1.15,2013-05-31 06:44:00,
2013-05-31 01:49:00,62.2,60.8,29.64,SSE,153,1.0,3.0,95,0.00,,,0.00,Wunderground v.1.15,2013-05-31 06:49:00,
2013-05-31 01:55:00,62.2,60.8,29.64,SSW,193,1.0,3.0,95,0.00,,,0.00,Wunderground v.1.15,2013-05-31 06:55:00,
2013-05-31 02:00:00,62.2,60.8,29.64,SSW,202,1.0,1.0,95,0.00,,,0.00,Wunderground v.1.15,2013-05-31 07:00:00,
2013-05-31 02:09:00,62.1,60.7,29.63,SSE,152,1.0,1.0,95,0.00,,,0.00,Wunderground v.1.15,2013-05-31 07:09:00,
2013-05-31 02:14:00,62.1,60.7,29.64,SSE,155,1.0,1.0,95,0.00,,,0.00,Wunderground v.1.15,2013-05-31 07:14:00,
2013-05-31 02:19:00,62.1,60.7,29.64,SSW,208,1.0,4.0,95,0.00,,,0.00,Wunderground v.1.15,2013-05-31 07:19:00,
2013-05-31 02:24:00,62.1,60.7,29.64,SSW,206,2.0,4.0,95,0.00,,,0.00,Wunderground v.1.15,2013-05-31 07:24:00,
2013-05-31 02:30:00,62.1,60.7,29.64,South,179,1.0,3.0,95,0.00,,,0.00,Wunderground v.1.15,2013-05-31 07:30:00,
2013-05-31 02:35:00,62.2,60.8,29.64,South,190,1.0,8.0,95,0.00,,,0.00,Wunderground v.1.15,2013-05-31 07:35:00,
2013-05-31 02:45:00,62.2,60.8,29.64,SSW,192,3.0,4.0,95,0.00,,,0.00,Wunderground v.1.15,2013-05-31 07:45:00,
2013-05-31 02:50:00,62.2,60.8,29.64,SSW,198,2.0,7.0,95,0.00,,,0.00,Wunderground v.1.15,2013-05-31 07:50:00,
2013-05-31 02:59:00,62.2,60.8,29.64,South,178,3.0,4.0,95,0.00,,,0.00,Wunderground v.1.15,2013-05-31 07:59:00,
2013-05-31 03:04:00,62.2,60.8,29.64,SW,225,4.0,4.0,95,0.00,,,0.00,Wunderground v.1.15,2013-05-31 08:04:00,
2013-05-31 03:09:00,62.3,60.8,29.65,SW,217,3.0,13.0,95,0.00,,,0.00,Wunderground v.1.15,2013-05-31 08:09:00,
2013-05-31 03:14:00,62.4,60.9,29.65,SE,138,4.0,13.0,95,0.00,,,0.00,Wunderground v.1.15,2013-05-31 08:14:00,
2013-05-31 03:19:00,62.4,60.9,29.65,SW,219,5.0,5.0,95,0.00,,,0.00,Wunderground v.1.15,2013-05-31 08:19:00,
2013-05-31 03:25:00,62.4,60.9,29.65,SSW,206,3.0,6.0,95,0.00,,,0.00,Wunderground v.1.15,2013-05-31 08:25:00,
2013-05-31 03:30:00,62.5,61.0,29.65,SSW,207,3.0,7.0,95,0.00,,,0.00,Wunderground v.1.15,2013-05-31 08:30:00,
2013-05-31 03:35:00,62.5,61.0,29.65,SSW,200,3.0,7.0,95,0.00,,,0.00,Wunderground v.1.15,2013-05-31 08:35:00,
2013-05-31 03:40:00,62.5,61.3,29.65,SSW,200,3.0,3.0,96,0.00,,,0.00,Wunderground v.1.15,2013-05-31 08:40:00,
2013-05-31 03:49:00,62.5,61.3,29.64,SSW,199,1.0,1.0,96,0.00,,,0.00,Wunderground v.1.15,2013-05-31 08:49:00,
2013-05-31 03:54:00,62.5,61.3,29.63,SSE,163,3.0,3.0,96,0.00,,,0.00,Wunderground v.1.15,2013-05-31 08:54:00,
2013-05-31 03:59:00,62.5,61.3,29.63,SSW,211,3.0,7.0,96,0.00,,,0.00,Wunderground v.1.15,2013-05-31 08:59:00,
2013-05-31 04:04:00,62.5,61.3,29.63,SSW,194,4.0,7.0,96,0.00,,,0.00,Wunderground v.1.15,2013-05-31 09:04:00,
2013-05-31 04:09:00,62.5,61.3,29.64,SSW,199,5.0,5.0,96,0.00,,,0.00,Wunderground v.1.15,2013-05-31 09:09:00,
2013-05-31 04:15:00,62.5,61.3,29.64,South,173,4.0,5.0,96,0.00,,,0.00,Wunderground v.1.15,2013-05-31 09:15:00,
2013-05-31 04:20:00,62.6,61.4,29.65,SW,222,3.0,7.0,96,0.00,,,0.00,Wunderground v.1.15,2013-05-31 09:20:00,
2013-05-31 04:29:00,62.7,61.5,29.65,SSW,195,6.0,6.0,96,0.00,,,0.00,Wunderground v.1.15,2013-05-31 09:29:00,
2013-05-31 04:34:00,62.7,61.5,29.65,SSW,206,5.0,7.0,96,0.00,,,0.00,Wunderground v.1.15,2013-05-31 09:34:00,
2013-05-31 04:39:00,62.8,61.6,29.65,SSW,205,4.0,8.0,96,0.00,,,0.00,Wunderground v.1.15,2013-05-31 09:39:00,
2013-05-31 04:44:00,62.9,61.7,29.65,South,186,4.0,8.0,96,0.00,,,0.00,Wunderground v.1.15,2013-05-31 09:44:00,
2013-05-31 04:50:00,62.9,61.7,29.64,South,188,4.0,4.0,96,0.00,,,0.00,Wunderground v.1.15,2013-05-31 09:50:00,
2013-05-31 04:55:00,62.9,61.7,29.64,SSW,205,2.0,4.0,96,0.00,,,0.00,Wunderground v.1.15,2013-05-31 09:55:00,
2013-05-31 05:04:00,62.8,61.6,29.62,South,182,1.0,4.0,96,0.00,,,0.00,Wunderground v.1.15,2013-05-31 10:04:00,
2013-05-31 05:09:00,62.8,61.6,29.62,SSW,207,1.0,4.0,96,0.00,,,0.00,Wunderground v.1.15,2013-05-31 10:09:00,
2013-05-31 05:14:00,62.7,61.5,29.62,SSW,207,1.0,4.0,96,0.00,,,0.00,Wunderground v.1.15,2013-05-31 10:14:00,
2013-05-31 05:19:00,62.5,61.3,29.63,ESE,116,0.0,0.0,96,0.00,,,0.00,Wunderground v.1.15,2013-05-31 10:19:00,
2013-05-31 05:24:00,62.5,61.3,29.62,ESE,119,0.0,0.0,96,0.00,,,0.00,Wunderground v.1.15,2013-05-31 10:24:00,
2013-05-31 05:30:00,62.5,61.3,29.61,ESE,123,0.0,0.0,96,0.00,,,0.00,Wunderground v.1.15,2013-05-31 10:30:00,
2013-05-31 05:35:00,62.4,61.2,29.61,ESE,107,0.0,0.0,96,0.00,,,0.00,Wunderground v.1.15,2013-05-31 10:35:00,
2013-05-31 05:44:00,62.2,61.0,29.61,SSE,161,0.0,4.0,96,0.00,,,0.00,Wunderground v.1.15,2013-05-31 10:44:00,
2013-05-31 05:49:00,62.1,60.9,29.62,SE,134,1.0,1.0,96,0.00,,,0.00,Wunderground v.1.15,2013-05-31 10:49:00,
2013-05-31 05:54:00,62.0,60.8,29.62,ESE,121,1.0,1.0,96,0.00,,,0.00,Wunderground v.1.15,2013-05-31 10:54:00,
2013-05-31 05:59:00,61.9,60.7,29.62,SE,130,0.0,5.0,96,0.00,,,0.00,Wunderground v.1.15,2013-05-31 10:59:00,
2013-05-31 06:05:00,61.8,60.6,29.63,SSE,155,1.0,5.0,96,0.00,,,0.00,Wunderground v.1.15,2013-05-31 11:05:00,
2013-05-31 06:10:00,61.9,60.7,29.63,East,82,1.0,1.0,96,0.00,,,0.00,Wunderground v.1.15,2013-05-31 11:10:00,
2013-05-31 06:19:00,61.9,60.7,29.63,SSE,168,1.0,1.0,96,0.00,,,0.00,Wunderground v.1.15,2013-05-31 11:19:00,
2013-05-31 06:29:00,62.0,60.8,29.63,SSW,202,2.0,3.0,96,0.00,,,0.00,Wunderground v.1.15,2013-05-31 11:29:00,
2013-05-31 06:34:00,62.0,60.8,29.62,South,191,1.0,4.0,96,0.00,,,0.00,Wunderground v.1.15,2013-05-31 11:34:00,
2013-05-31 06:39:00,62.0,60.8,29.62,East,95,2.0,2.0,96,0.00,,,0.00,Wunderground v.1.15,2013-05-31 11:39:00,
2013-05-31 06:44:00,62.1,60.9,29.62,SE,142,2.0,4.0,96,0.00,,,0.00,Wunderground v.1.15,2013-05-31 11:44:00,
2013-05-31 06:49:00,62.2,61.0,29.63,ESE,113,1.0,1.0,96,0.00,,,0.00,Wunderground v.1.15,2013-05-31 11:49:00,
2013-05-31 06:54:00,62.2,61.0,29.62,ESE,106,1.0,1.0,96,0.00,,,0.00,Wunderground v.1.15,2013-05-31 11:54:00,
2013-05-31 06:59:00,62.3,61.1,29.62,South,171,2.0,2.0,96,0.00,,,0.00,Wunderground v.1.15,2013-05-31 11:59:00,
2013-05-31 07:05:00,62.3,61.1,29.62,South,182,2.0,2.0,96,0.00,,,0.00,Wunderground v.1.15,2013-05-31 12:05:00,
2013-05-31 07:10:00,62.3,61.1,29.62,South,172,2.0,2.0,96,0.00,,,0.00,Wunderground v.1.15,2013-05-31 12:10:00,
2013-05-31 07:19:00,62.4,61.2,29.62,South,188,2.0,2.0,96,0.00,,,0.00,Wunderground v.1.15,2013-05-31 12:19:00,
2013-05-31 07:24:00,62.5,61.3,29.62,SSE,148,2.0,3.0,96,0.00,,,0.00,Wunderground v.1.15,2013-05-31 12:24:00,
2013-05-31 07:29:00,62.6,61.4,29.61,ESE,121,2.0,4.0,96,0.00,,,0.00,Wunderground v.1.15,2013-05-31 12:29:00,
2013-05-31 07:39:00,62.9,61.7,29.61,East,95,1.0,1.0,96,0.00,,,0.00,Wunderground v.1.15,2013-05-31 12:39:00,
2013-05-31 07:45:00,62.9,61.7,29.61,ESE,119,2.0,2.0,96,0.00,,,0.00,Wunderground v.1.15,2013-05-31 12:45:00,
2013-05-31 07:50:00,63.0,61.8,29.61,SSE,163,3.0,3.0,96,0.00,,,0.00,Wunderground v.1.15,2013-05-31 12:50:00,
2013-05-31 07:59:00,63.2,62.0,29.61,SE,141,1.0,1.0,96,0.00,,,0.00,Wunderground v.1.15,2013-05-31 12:59:00,
2013-05-31 08:04:00,63.3,61.8,29.61,ESE,104,1.0,3.0,95,0.00,,,0.00,Wunderground v.1.15,2013-05-31 13:04:00,
2013-05-31 08:09:00,63.5,62.0,29.61,SE,142,1.0,1.0,95,0.00,,,0.00,Wunderground v.1.15,2013-05-31 13:09:00,
2013-05-31 08:14:00,63.8,62.3,29.62,SSE,157,1.0,1.0,95,0.00,,,0.00,Wunderground v.1.15,2013-05-31 13:14:00,
2013-05-31 08:19:00,64.2,62.4,29.61,SE,140,0.0,2.0,94,0.00,,,0.00,Wunderground v.1.15,2013-05-31 13:19:00,
2013-05-31 08:25:00,64.6,62.8,29.62,SSW,199,1.0,2.0,94,0.00,,,0.00,Wunderground v.1.15,2013-05-31 13:25:00,
2013-05-31 08:30:00,65.1,63.0,29.62,ESE,113,2.0,2.0,93,0.00,,,0.00,Wunderground v.1.15,2013-05-31 13:30:00,
2013-05-31 08:35:00,65.4,63.0,29.63,SE,126,2.0,5.0,92,0.00,,,0.00,Wunderground v.1.15,2013-05-31 13:35:00,
2013-05-31 08:40:00,65.5,62.8,29.63,SE,143,3.0,4.0,91,0.00,,,0.00,Wunderground v.1.15,2013-05-31 13:40:00,
2013-05-31 08:49:00,66.1,63.1,29.63,ESE,111,1.0,2.0,90,0.00,,,0.00,Wunderground v.1.15,2013-05-31 13:49:00,
2013-05-31 08:55:00,66.4,63.1,29.64,SSW,192,2.0,4.0,89,0.00,,,0.00,Wunderground v.1.15,2013-05-31 13:55:00,
2013-05-31 09:00:00,66.5,62.8,29.64,South,173,4.0,10.0,88,0.00,,,0.00,Wunderground v.1.15,2013-05-31 14:00:00,
2013-05-31 09:05:00,66.9,62.9,29.64,ESE,103,4.0,10.0,87,0.00,,,0.00,Wunderground v.1.15,2013-05-31 14:05:00,
2013-05-31 09:10:00,67.5,63.2,29.64,South,190,3.0,3.0,86,0.00,,,0.00,Wunderground v.1.15,2013-05-31 14:10:00,
2013-05-31 09:19:00,67.7,62.7,29.64,SE,145,5.0,5.0,84,0.00,,,0.00,Wunderground v.1.15,2013-05-31 14:19:00,
2013-05-31 09:24:00,68.2,63.2,29.64,SSW,198,6.0,6.0,84,0.00,,,0.00,Wunderground v.1.15,2013-05-31 14:24:00,
2013-05-31 09:29:00,68.3,62.9,29.64,South,183,5.0,8.0,83,0.00,,,0.00,Wunderground v.1.15,2013-05-31 14:29:00,
2013-05-31 09:34:00,68.4,62.7,29.65,SE,136,7.0,11.0,82,0.00,,,0.00,Wunderground v.1.15,2013-05-31 14:34:00,
2013-05-31 09:39:00,68.7,62.6,29.65,SSW,193,7.0,7.0,81,0.00,,,0.00,Wunderground v.1.15,2013-05-31 14:39:00,
2013-05-31 09:45:00,69.2,62.8,29.64,SW,217,5.0,9.0,80,0.00,,,0.00,Wunderground v.1.15,2013-05-31 14:45:00,
2013-05-31 09:50:00,69.3,62.9,29.64,SSW,196,4.0,4.0,80,0.00,,,0.00,Wunderground v.1.15,2013-05-31 14:50:00,
2013-05-31 09:55:00,69.2,62.4,29.64,SSW,194,6.0,6.0,79,0.00,,,0.00,Wunderground v.1.15,2013-05-31 14:55:00,
2013-05-31 10:04:00,69.7,63.3,29.64,SSW,199,4.0,6.0,80,0.00,,,0.00,Wunderground v.1.15,2013-05-31 15:04:00,
2013-05-31 10:09:00,70.4,62.8,29.64,SSW,204,2.0,2.0,77,0.00,,,0.00,Wunderground v.1.15,2013-05-31 15:09:00,
2013-05-31 10:14:00,70.8,62.1,29.64,South,171,5.0,5.0,74,0.00,,,0.00,Wunderground v.1.15,2013-05-31 15:14:00,
2013-05-31 10:19:00,70.8,61.7,29.64,South,169,7.0,7.0,73,0.00,,,0.00,Wunderground v.1.15,2013-05-31 15:19:00,
2013-05-31 10:24:00,71.0,61.9,29.65,SSW,206,7.0,7.0,73,0.00,,,0.00,Wunderground v.1.15,2013-05-31 15:24:00,
2013-05-31 10:29:00,71.1,61.6,29.65,SW,227,7.0,11.0,72,0.00,,,0.00,Wunderground v.1.15,2013-05-31 15:29:00,
2013-05-31 10:35:00,71.3,61.8,29.65,WSW,240,6.0,11.0,72,0.00,,,0.00,Wunderground v.1.15,2013-05-31 15:35:00,
2013-05-31 10:39:00,71.8,62.3,29.65,SW,234,5.0,5.0,72,0.00,,,0.00,Wunderground v.1.15,2013-05-31 15:39:00,
2013-05-31 10:45:00,72.4,61.7,29.65,SSW,207,3.0,5.0,69,0.00,,,0.00,Wunderground v.1.15,2013-05-31 15:45:00,
2013-05-31 10:50:00,72.4,61.7,29.66,SSW,203,3.0,10.0,69,0.00,,,0.00,Wunderground v.1.15,2013-05-31 15:50:00,
2013-05-31 10:59:00,72.3,62.0,29.67,SSW,196,6.0,6.0,70,0.00,,,0.00,Wunderground v.1.15,2013-05-31 15:59:00,
2013-05-31 11:04:00,72.2,61.9,29.67,SSW,210,6.0,6.0,70,0.00,,,0.00,Wunderground v.1.15,2013-05-31 16:04:00,
2013-05-31 11:09:00,72.3,62.0,29.67,WSW,241,5.0,5.0,70,0.00,,,0.00,Wunderground v.1.15,2013-05-31 16:09:00,
2013-05-31 11:19:00,71.6,62.1,29.67,South,170,6.0,6.0,72,0.00,,,0.00,Wunderground v.1.15,2013-05-31 16:19:00,
2013-05-31 11:24:00,71.4,61.5,29.67,SSW,193,6.0,6.0,71,0.00,,,0.00,Wunderground v.1.15,2013-05-31 16:24:00,
2013-05-31 11:29:00,71.0,61.5,29.67,SW,229,5.0,5.0,72,0.00,,,0.00,Wunderground v.1.15,2013-05-31 16:29:00,
2013-05-31 11:34:00,70.8,61.7,29.67,SSW,202,4.0,5.0,73,0.00,,,0.00,Wunderground v.1.15,2013-05-31 16:34:00,
2013-05-31 11:40:00,70.8,61.7,29.67,SW,224,3.0,8.0,73,0.00,,,0.00,Wunderground v.1.15,2013-05-31 16:40:00,
2013-05-31 11:45:00,70.9,62.2,29.67,SSW,196,3.0,8.0,74,0.00,,,0.00,Wunderground v.1.15,2013-05-31 16:45:00,
2013-05-31 11:54:00,70.7,61.6,29.67,South,182,5.0,7.0,73,0.00,,,0.00,Wunderground v.1.15,2013-05-31 16:54:00,
2013-05-31 11:59:00,70.8,61.7,29.67,SSW,200,6.0,11.0,73,0.00,,,0.00,Wunderground v.1.15,2013-05-31 16:59:00,
2013-05-31 12:04:00,71.6,62.9,29.67,South,184,5.0,11.0,74,0.00,,,0.00,Wunderground v.1.15,2013-05-31 17:04:00,
2013-05-31 12:09:00,72.1,62.6,29.67,South,175,5.0,5.0,72,0.00,,,0.00,Wunderground v.1.15,2013-05-31 17:09:00,
2013-05-31 12:15:00,72.6,63.4,29.67,SSE,159,3.0,5.0,73,0.00,,,0.00,Wunderground v.1.15,2013-05-31 17:15:00,
2013-05-31 12:20:00,73.3,62.9,29.67,SE,146,2.0,2.0,70,0.00,,,0.00,Wunderground v.1.15,2013-05-31 17:20:00,
2013-05-31 12:29:00,72.5,62.2,29.67,SSE,162,4.0,4.0,70,0.00,,,0.00,Wunderground v.1.15,2013-05-31 17:29:00,
2013-05-31 12:34:00,72.6,62.7,29.67,ESE,107,3.0,4.0,71,0.00,,,0.00,Wunderground v.1.15,2013-05-31 17:34:00,
2013-05-31 12:39:00,72.6,62.7,29.67,ESE,122,2.0,2.0,71,0.00,,,0.00,Wunderground v.1.15,2013-05-31 17:39:00,
2013-05-31 12:44:00,72.3,62.0,29.67,ESE,103,3.0,3.0,70,0.00,,,0.00,Wunderground v.1.15,2013-05-31 17:44:00,
2013-05-31 12:49:00,72.2,62.7,29.67,South,189,3.0,15.0,72,0.00,,,0.00,Wunderground v.1.15,2013-05-31 17:49:00,
2013-05-31 12:54:00,71.6,61.3,29.67,SSE,148,4.0,15.0,70,0.00,,,0.00,Wunderground v.1.15,2013-05-31 17:54:00,
2013-05-31 13:00:00,71.5,62.0,29.67,SSW,203,5.0,5.0,72,0.00,,,0.00,Wunderground v.1.15,2013-05-31 18:00:00,
2013-05-31 13:05:00,71.4,61.5,29.67,SSE,160,4.0,5.0,71,0.00,,,0.00,Wunderground v.1.15,2013-05-31 18:05:00,
2013-05-31 13:10:00,71.2,61.7,29.67,South,188,4.0,4.0,72,0.00,,,0.00,Wunderground v.1.15,2013-05-31 18:10:00,
2013-05-31 13:19:00,70.9,61.8,29.67,SSW,193,4.0,4.0,73,0.00,,,0.00,Wunderground v.1.15,2013-05-31 18:19:00,
2013-05-31 13:24:00,71.2,62.5,29.66,SE,134,5.0,5.0,74,0.00,,,0.00,Wunderground v.1.15,2013-05-31 18:24:00,
2013-05-31 13:29:00,71.8,62.7,29.66,SSW,207,3.0,3.0,73,0.00,,,0.00,Wunderground v.1.15,2013-05-31 18:29:00,
2013-05-31 13:34:00,71.9,62.0,29.67,SSW,205,4.0,6.0,71,0.00,,,0.00,Wunderground v.1.15,2013-05-31 18:34:00,
2013-05-31 13:39:00,71.0,61.5,29.67,SSW,204,6.0,6.0,72,0.00,,,0.00,Wunderground v.1.15,2013-05-31 18:39:00,
2013-05-31 13:44:00,71.1,62.0,29.67,South,190,3.0,6.0,73,0.00,,,0.00,Wunderground v.1.15,2013-05-31 18:44:00,
2013-05-31 13:49:00,70.7,61.6,29.67,South,187,3.0,3.0,73,0.00,,,0.00,Wunderground v.1.15,2013-05-31 18:49:00,
2013-05-31 13:55:00,70.3,61.2,29.67,SSW,192,5.0,7.0,73,0.00,,,0.00,Wunderground v.1.15,2013-05-31 18:55:00,
2013-05-31 14:04:00,70.1,61.4,29.66,SSW,200,5.0,7.0,74,0.00,,,0.00,Wunderground v.1.15,2013-05-31 19:04:00,
2013-05-31 14:09:00,70.8,62.9,29.66,SW,215,4.0,4.0,76,0.00,,,0.00,Wunderground v.1.15,2013-05-31 19:09:00,
2013-05-31 14:14:00,70.8,62.5,29.66,SSE,150,3.0,4.0,75,0.00,,,0.00,Wunderground v.1.15,2013-05-31 19:14:00,
2013-05-31 14:19:00,71.2,62.9,29.66,SW,226,4.0,5.0,75,0.00,,,0.00,Wunderground v.1.15,2013-05-31 19:19:00,
2013-05-31 14:25:00,70.9,62.6,29.66,SW,225,4.0,10.0,75,0.00,,,0.00,Wunderground v.1.15,2013-05-31 19:25:00,
2013-05-31 14:34:00,70.8,62.9,29.66,ESE,106,4.0,6.0,76,0.00,,,0.00,Wunderground v.1.15,2013-05-31 19:34:00,
2013-05-31 14:39:00,70.8,62.9,29.66,SSE,168,5.0,5.0,76,0.00,,,0.00,Wunderground v.1.15,2013-05-31 19:39:00,
2013-05-31 14:44:00,70.8,62.9,29.66,SSW,197,4.0,17.0,76,0.00,,,0.00,Wunderground v.1.15,2013-05-31 19:44:00,
2013-05-31 14:49:00,70.8,64.0,29.65,SW,220,4.0,4.0,79,0.00,,,0.00,Wunderground v.1.15,2013-05-31 19:49:00,
2013-05-31 14:54:00,70.8,62.9,29.66,SW,215,4.0,4.0,76,0.00,,,0.00,Wunderground v.1.15,2013-05-31 19:54:00,
2013-05-31 15:00:00,70.2,63.0,29.66,SSW,211,4.0,5.0,78,0.00,,,0.00,Wunderground v.1.15,2013-05-31 20:00:00,
2013-05-31 15:09:00,69.9,62.7,29.66,SSE,164,4.0,4.0,78,0.00,,,0.00,Wunderground v.1.15,2013-05-31 20:09:00,
2013-05-31 15:14:00,70.3,63.8,29.66,SSW,207,4.0,4.0,80,0.00,,,0.00,Wunderground v.1.15,2013-05-31 20:14:00,
2013-05-31 15:19:00,70.8,64.0,29.65,SE,144,3.0,3.0,79,0.00,,,0.00,Wunderground v.1.15,2013-05-31 20:19:00,
2013-05-31 15:25:00,71.7,64.8,29.65,SSW,212,2.0,11.0,79,0.00,,,0.00,Wunderground v.1.15,2013-05-31 20:25:00,
2013-05-31 15:30:00,71.3,63.7,29.65,South,173,4.0,4.0,77,0.00,,,0.00,Wunderground v.1.15,2013-05-31 20:30:00,
2013-05-31 15:39:00,71.7,64.5,29.65,South,191,3.0,5.0,78,0.00,,,0.00,Wunderground v.1.15,2013-05-31 20:39:00,
2013-05-31 15:44:00,71.4,63.8,29.64,SSW,207,4.0,7.0,77,0.00,,,0.00,Wunderground v.1.15,2013-05-31 20:44:00,
2013-05-31 15:49:00,72.0,64.0,29.64,South,185,4.0,7.0,76,0.00,,,0.00,Wunderground v.1.15,2013-05-31 20:49:00,
2013-05-31 15:54:00,72.6,65.0,29.64,SSE,149,3.0,7.0,77,0.00,,,0.00,Wunderground v.1.15,2013-05-31 20:54:00,
2013-05-31 16:00:00,72.9,64.5,29.64,SSW,213,2.0,8.0,75,0.00,,,0.00,Wunderground v.1.15,2013-05-31 21:00:00,
2013-05-31 16:05:00,73.4,63.8,29.65,SE,135,2.0,8.0,72,0.00,,,0.00,Wunderground v.1.15,2013-05-31 21:05:00,
2013-05-31 16:14:00,73.4,64.2,29.64,SW,214,2.0,4.0,73,0.00,,,0.00,Wunderground v.1.15,2013-05-31 21:14:00,
2013-05-31 16:19:00,73.8,64.2,29.63,SSE,161,3.0,3.0,72,0.00,,,0.00,Wunderground v.1.15,2013-05-31 21:19:00,
2013-05-31 16:24:00,73.9,64.7,29.63,WNW,292,3.0,5.0,73,0.00,,,0.00,Wunderground v.1.15,2013-05-31 21:24:00,
2013-05-31 16:29:00,74.0,65.2,29.63,South,175,2.0,2.0,74,0.00,,,0.00,Wunderground v.1.15,2013-05-31 21:29:00,
2013-05-31 16:34:00,74.0,64.8,29.63,ESE,123,2.0,2.0,73,0.00,,,0.00,Wunderground v.1.15,2013-05-31 21:34:00,
2013-05-31 16:39:00,74.1,65.3,29.63,SW,215,2.0,7.0,74,0.00,,,0.00,Wunderground v.1.15,2013-05-31 21:39:00,
2013-05-31 16:44:00,74.1,65.3,29.63,SW,219,2.0,7.0,74,0.00,,,0.00,Wunderground v.1.15,2013-05-31 21:44:00,
2013-05-31 16:49:00,73.8,64.2,29.64,SSW,196,4.0,8.0,72,0.00,,,0.00,Wunderground v.1.15,2013-05-31 21:49:00,
2013-05-31 16:55:00,74.2,64.2,29.63,South,184,3.0,8.0,71,0.00,,,0.00,Wunderground v.1.15,2013-05-31 21:55:00,
2013-05-31 17:00:00,73.9,63.9,29.63,South,182,2.0,2.0,71,0.00,,,0.00,Wunderground v.1.15,2013-05-31 22:00:00,
2013-05-31 17:09:00,73.3,64.1,29.62,South,191,3.0,3.0,73,0.00,,,0.00,Wunderground v.1.15,2013-05-31 22:09:00,
2013-05-31 17:14:00,73.5,64.3,29.62,ESE,120,1.0,3.0,73,0.00,,,0.00,Wunderground v.1.15,2013-05-31 22:14:00,
2013-05-31 17:19:00,73.3,64.1,29.62,SSE,148,1.0,1.0,73,0.00,,,0.00,Wunderground v.1.15,2013-05-31 22:19:00,
2013-05-31 17:29:00,72.8,64.0,29.61,South,187,1.0,1.0,74,0.00,,,0.00,Wunderground v.1.15,2013-05-31 22:29:00,
2013-05-31 17:35:00,73.0,64.2,29.60,SSW,198,1.0,1.0,74,0.00,,,0.00,Wunderground v.1.15,2013-05-31 22:35:00,
2013-05-31 17:40:00,73.5,64.7,29.61,SW,214,1.0,1.0,74,0.00,,,0.00,Wunderground v.1.15,2013-05-31 22:40:00,
2013-05-31 17:49:00,73.4,64.2,29.61,SSW,199,0.0,0.0,73,0.00,,,0.00,Wunderground v.1.15,2013-05-31 22:49:00,
2013-05-31 17:54:00,73.0,64.2,29.60,SSW,203,0.0,0.0,74,0.00,,,0.00,Wunderground v.1.15,2013-05-31 22:54:00,
2013-05-31 17:59:00,73.2,64.4,29.60,East,89,0.0,0.0,74,0.00,,,0.00,Wunderground v.1.15,2013-05-31 22:59:00,
2013-05-31 18:04:00,73.4,64.2,29.61,South,171,1.0,1.0,73,0.00,,,0.00,Wunderground v.1.15,2013-05-31 23:04:00,
2013-05-31 18:10:00,73.7,64.9,29.61,SSW,201,2.0,2.0,74,0.00,,,0.00,Wunderground v.1.15,2013-05-31 23:10:00,
2013-05-31 18:19:00,73.8,64.6,29.61,South,187,2.0,2.0,73,0.00,,,0.00,Wunderground v.1.15,2013-05-31 23:19:00,
2013-05-31 18:24:00,73.7,64.5,29.61,SSE,162,3.0,3.0,73,0.00,,,0.00,Wunderground v.1.15,2013-05-31 23:24:00,
2013-05-31 18:29:00,73.8,64.6,29.61,South,185,2.0,2.0,73,0.00,,,0.00,Wunderground v.1.15,2013-05-31 23:29:00,
2013-05-31 18:34:00,73.6,64.4,29.62,South,187,2.0,2.0,73,0.00,,,0.00,Wunderground v.1.15,2013-05-31 23:34:00,
2013-05-31 18:39:00,73.5,64.7,29.62,South,177,2.0,3.0,74,0.00,,,0.00,Wunderground v.1.15,2013-05-31 23:39:00,
2013-05-31 18:44:00,73.3,64.5,29.62,South,188,2.0,3.0,74,0.00,,,0.00,Wunderground v.1.15,2013-05-31 23:44:00,
2013-05-31 18:50:00,73.2,64.4,29.62,South,182,3.0,3.0,74,0.00,,,0.00,Wunderground v.1.15,2013-05-31 23:50:00,
2013-05-31 18:59:00,73.2,64.8,29.62,SE,137,1.0,1.0,75,0.00,,,0.00,Wunderground v.1.15,2013-05-31 23:59:00,
2013-05-31 19:04:00,73.0,65.0,29.62,South,188,2.0,2.0,76,0.00,,,0.00,Wunderground v.1.15,2013-06-01 00:04:00,
2013-05-31 19:09:00,73.0,65.0,29.62,SE,133,2.0,2.0,76,0.00,,,0.00,Wunderground v.1.15,2013-06-01 00:09:00,
2013-05-31 19:14:00,73.2,65.2,29.61,SSW,209,1.0,6.0,76,0.00,,,0.00,Wunderground v.1.15,2013-06-01 00:14:00,
2013-05-31 19:20:00,73.2,65.2,29.61,SSE,150,2.0,2.0,76,0.00,,,0.00,Wunderground v.1.15,2013-06-01 00:20:00,
2013-05-31 19:25:00,73.1,65.1,29.61,SSW,202,2.0,5.0,76,0.00,,,0.00,Wunderground v.1.15,2013-06-01 00:25:00,
2013-05-31 19:34:00,72.8,65.2,29.60,SSW,198,1.0,2.0,77,0.00,,,0.00,Wunderground v.1.15,2013-06-01 00:34:00,
2013-05-31 19:39:00,72.6,65.0,29.61,SSW,199,1.0,6.0,77,0.00,,,0.00,Wunderground v.1.15,2013-06-01 00:39:00,
2013-05-31 19:44:00,72.6,65.3,29.60,SSW,202,2.0,6.0,78,0.00,,,0.00,Wunderground v.1.15,2013-06-01 00:44:00,
2013-05-31 19:49:00,72.4,65.2,29.59,South,169,1.0,1.0,78,0.00,,,0.00,Wunderground v.1.15,2013-06-01 00:49:00,
2013-05-31 19:54:00,72.2,65.3,29.59,SSW,202,0.0,1.0,79,0.00,,,0.00,Wunderground v.1.15,2013-06-01 00:54:00,
2013-05-31 19:59:00,72.1,65.2,29.59,SW,219,0.0,0.0,79,0.00,,,0.00,Wunderground v.1.15,2013-06-01 00:59:00,
2013-05-31 20:04:00,71.9,65.4,29.58,SSE,161,0.0,0.0,80,0.00,,,0.00,Wunderground v.1.15,2013-06-01 01:04:00,
2013-05-31 20:09:00,71.7,65.6,29.59,South,178,0.0,0.0,81,0.00,,,0.00,Wunderground v.1.15,2013-06-01 01:09:00,
2013-05-31 20:15:00,71.5,65.4,29.59,South,171,0.0,1.0,81,0.00,,,0.00,Wunderground v.1.15,2013-06-01 01:15:00,
2013-05-31 20:20:00,71.4,65.3,29.59,SE,140,0.0,0.0,81,0.00,,,0.00,Wunderground v.1.15,2013-06-01 01:20:00,
2013-05-31 20:29:00,71.3,65.2,29.60,SSW,192,0.0,2.0,81,0.00,,,0.00,Wunderground v.1.15,2013-06-01 01:29:00,
2013-05-31 20:34:00,71.2,65.4,29.59,SSW,206,0.0,2.0,82,0.00,,,0.00,Wunderground v.1.15,2013-06-01 01:34:00,
2013-05-31 20:39:00,70.9,65.1,29.60,SSW,207,0.0,0.0,82,0.00,,,0.00,Wunderground v.1.15,2013-06-01 01:39:00,
2013-05-31 20:44:00,70.8,65.0,29.61,SSW,207,0.0,0.0,82,0.00,,,0.00,Wunderground v.1.15,2013-06-01 01:44:00,
2013-05-31 20:49:00,70.5,65.1,29.61,South,182,0.0,0.0,83,0.00,,,0.00,Wunderground v.1.15,2013-06-01 01:49:00,
2013-05-31 20:54:00,70.3,64.9,29.61,South,182,0.0,0.0,83,0.00,,,0.00,Wunderground v.1.15,2013-06-01 01:54:00,
2013-05-31 20:59:00,70.1,65.0,29.61,South,183,0.0,0.0,84,0.00,,,0.00,Wunderground v.1.15,2013-06-01 01:59:00,
2013-05-31 21:04:00,69.8,64.7,29.61,South,183,0.0,0.0,84,0.00,,,0.00,Wunderground v.1.15,2013-06-01 02:04:00,
2013-05-31 21:09:00,69.6,64.9,29.62,South,180,0.0,0.0,85,0.00,,,0.00,Wunderground v.1.15,2013-06-01 02:09:00,
2013-05-31 21:15:00,69.4,64.7,29.62,South,180,0.0,0.0,85,0.00,,,0.00,Wunderground v.1.15,2013-06-01 02:15:00,
2013-05-31 21:19:00,69.3,64.9,29.62,SSE,167,0.0,0.0,86,0.00,,,0.00,Wunderground v.1.15,2013-06-01 02:19:00,
2013-05-31 21:25:00,69.2,64.8,29.62,SSW,200,0.0,0.0,86,0.00,,,0.00,Wunderground v.1.15,2013-06-01 02:25:00,
2013-05-31 21:30:00,69.2,65.2,29.63,SE,134,0.0,0.0,87,0.00,,,0.00,Wunderground v.1.15,2013-06-01 02:30:00,
2013-05-31 21:39:00,69.1,65.1,29.63,ESE,122,0.0,1.0,87,0.00,,,0.00,Wunderground v.1.15,2013-06-01 02:39:00,
2013-05-31 21:44:00,69.0,65.3,29.63,SSE,165,0.0,1.0,88,0.00,,,0.00,Wunderground v.1.15,2013-06-01 02:44:00,
2013-05-31 21:49:00,68.9,65.2,29.63,SSW,208,0.0,0.0,88,0.00,,,0.00,Wunderground v.1.15,2013-06-01 02:49:00,
2013-05-31 21:54:00,68.8,65.1,29.63,SSW,193,0.0,0.0,88,0.00,,,0.00,Wunderground v.1.15,2013-06-01 02:54:00,
2013-05-31 22:00:00,68.6,64.9,29.63,South,188,0.0,0.0,88,0.00,,,0.00,Wunderground v.1.15,2013-06-01 03:00:00,
2013-05-31 22:05:00,68.5,65.1,29.64,SSW,213,0.0,0.0,89,0.00,,,0.00,Wunderground v.1.15,2013-06-01 03:05:00,
2013-05-31 22:14:00,68.2,64.8,29.63,SSW,195,0.0,1.0,89,0.00,,,0.00,Wunderground v.1.15,2013-06-01 03:14:00,
2013-05-31 22:24:00,68.0,65.0,29.63,SSW,201,1.0,1.0,90,0.00,,,0.00,Wunderground v.1.15,2013-06-01 03:24:00,
2013-05-31 22:29:00,68.0,65.0,29.63,SSW,205,0.0,0.0,90,0.00,,,0.00,Wunderground v.1.15,2013-06-01 03:29:00,
2013-05-31 22:34:00,68.1,65.1,29.62,South,175,1.0,1.0,90,0.00,,,0.00,Wunderground v.1.15,2013-06-01 03:34:00,
2013-05-31 22:39:00,68.0,65.0,29.62,SE,133,1.0,1.0,90,0.00,,,0.00,Wunderground v.1.15,2013-06-01 03:39:00,
2013-05-31 22:44:00,67.9,64.9,29.62,SSW,202,1.0,1.0,90,0.00,,,0.00,Wunderground v.1.15,2013-06-01 03:44:00,
2013-05-31 22:49:00,67.7,64.7,29.62,SSW,196,1.0,1.0,90,0.00,,,0.00,Wunderground v.1.15,2013-06-01 03:49:00,
2013-05-31 22:55:00,67.6,64.6,29.61,South,171,0.0,1.0,90,0.00,,,0.00,Wunderground v.1.15,2013-06-01 03:55:00,
2013-05-31 23:00:00,67.4,64.4,29.61,SSE,167,0.0,0.0,90,0.00,,,0.00,Wunderground v.1.15,2013-06-01 04:00:00,
2013-05-31 23:05:00,67.2,64.5,29.62,South,189,0.0,0.0,91,0.00,,,0.00,Wunderground v.1.15,2013-06-01 04:05:00,
2013-05-31 23:09:00,67.1,64.4,29.61,SSE,159,0.0,0.0,91,0.00,,,0.00,Wunderground v.1.15,2013-06-01 04:09:00,
2013-05-31 23:14:00,66.9,64.2,29.61,SE,128,0.0,0.0,91,0.00,,,0.00,Wunderground v.1.15,2013-06-01 04:14:00,
2013-05-31 23:19:00,66.8,64.1,29.61,SSW,205,0.0,0.0,91,0.00,,,0.00,Wunderground v.1.15,2013-06-01 04:19:00,
2013-05-31 23:24:00,66.7,64.3,29.61,SW,224,0.0,0.0,92,0.00,,,0.00,Wunderground v.1.15,2013-06-01 04:24:00,
2013-05-31 23:29:00,66.6,64.2,29.61,SSW,198,0.0,0.0,92,0.00,,,0.00,Wunderground v.1.15,2013-06-01 04:29:00,
2013-05-31 23:34:00,66.5,64.1,29.61,South,179,0.0,0.0,92,0.00,,,0.00,Wunderground v.1.15,2013-06-01 04:34:00,
2013-05-31 23:39:00,66.5,64.4,29.61,SSW,197,0.0,0.0,93,0.00,,,0.00,Wunderground v.1.15,2013-06-01 04:39:00,
2013-05-31 23:44:00,66.4,64.3,29.60,South,190,0.0,0.0,93,0.00,,,0.00,Wunderground v.1.15,2013-06-01 04:44:00,
2013-05-31 23:49:00,66.3,64.2,29.60,SSW,212,0.0,0.0,93,0.00,,,0.00,Wunderground v.1.15,2013-06-01 04:49:00,
2013-05-31 23:55:00,66.3,64.2,29.59,South,191,0.0,0.0,93,0.00,,,0.00,Wunderground v.1.15,2013-06-01 04:55:00,